| time (UTC) | temp F | wind direction | speed knots | gust knots | rain 1hr in | rain 24hr in | rain mn in | humidity % | barometer mb |
| 20260503192518 | 54 | 0.0 | 0.9 | 0.01 | 0.03 | 0.01 | 94 | 1028.2 | |
| 20260503191518 | 54 | 0.0 | 0.0 | 0.01 | 0.04 | 0.01 | 94 | 1028.2 | |
| 20260503190538 | 54 | 0.0 | 0.9 | 0.01 | 0.04 | 0.01 | 94 | 1028.3 | |
| 20260503185538 | 54 | 0.0 | 0.0 | 0.01 | 0.04 | 0.01 | 94 | 1028.4 | |
| 20260503184518 | 54 | 0.0 | 0.0 | 0.01 | 0.04 | 0.01 | 95 | 1028.4 | |
| 20260503183518 | 54 | 0.0 | 0.0 | 0.00 | 0.03 | 0.00 | 95 | 1028.4 | |
| 20260503182518 | 53 | 0.0 | 0.0 | 0.00 | 0.03 | 0.00 | 94 | 1028.5 | |
| 20260503181518 | 53 | 0.0 | 0.0 | 0.00 | 0.03 | 0.00 | 94 | 1028.5 | |
| 20260503180518 | 53 | 0.0 | 0.0 | 0.00 | 0.03 | 0.00 | 94 | 1028.4 | |
| 20260503175518 | 53 | 0.0 | 0.0 | 0.00 | 0.04 | 0.00 | 94 | 1028.5 | |
| 20260503174518 | 54 | 0.0 | 0.0 | 0.00 | 0.04 | 0.00 | 94 | 1028.5 | |
| 20260503173518 | 54 | 0.0 | 0.0 | 0.00 | 0.04 | 0.00 | 94 | 1028.5 | |
| 20260503172538 | 54 | 0.0 | 0.9 | 0.00 | 0.04 | 0.00 | 94 | 1028.6 | |
| 20260503171518 | 54 | 0.0 | 0.0 | 0.00 | 0.04 | 0.00 | 94 | 1028.6 | |
| 20260503170518 | 54 | 0.0 | 0.9 | 0.00 | 0.04 | 0.00 | 94 | 1028.6 | |
| 20260503150538 | 55 | 0.0 | 0.0 | 0.01 | 0.06 | 0.05 | 93 | 1028.5 | |
| 20260503130518 | 55 | 0.0 | 0.0 | 0.00 | 0.07 | 0.04 | 92 | 1028.6 | |
| 20260503110517 | 57 | 0.0 | 0.0 | 0.00 | 0.12 | 0.04 | 91 | 1028.0 | |
| 20260503081517 | 62 | 225 | 0.9 | 3.5 | 0.00 | 0.17 | 0.04 | 81 | 1026.9 |
| 20260503080537 | 62 | 225 | 0.9 | 3.5 | 0.00 | 0.17 | 0.04 | 81 | 1026.9 |
| 20260503072517 | 61 | 0.0 | 1.7 | 0.00 | 0.17 | 0.04 | 82 | 1026.8 | |
| 20260503071517 | 62 | 113 | 0.9 | 3.5 | 0.00 | 0.17 | 0.04 | 81 | 1026.9 |
| 20260503070517 | 62 | 0.0 | 2.6 | 0.00 | 0.18 | 0.04 | 80 | 1026.8 | |
| 20260503054519 | 63 | 225 | 0.9 | 4.3 | 0.00 | 0.18 | 0.04 | 79 | 1026.6 |
| 20260503053519 | 63 | 203 | 1.7 | 5.2 | 0.00 | 0.18 | 0.04 | 78 | 1026.6 |
| 20260503052519 | 63 | 113 | 0.9 | 2.6 | 0.00 | 0.18 | 0.04 | 76 | 1026.6 |
| 20260503051519 | 64 | 0.0 | 1.7 | 0.00 | 0.18 | 0.04 | 77 | 1026.6 | |
| 20260503050519 | 63 | 180 | 0.9 | 2.6 | 0.00 | 0.18 | 0.04 | 78 | 1026.6 |
| 20260503045519 | 63 | 113 | 0.9 | 5.2 | 0.00 | 0.18 | 0.04 | 78 | 1026.7 |
| 20260503044519 | 63 | 0.0 | 1.7 | 0.00 | 0.18 | 0.04 | 78 | 1026.8 | |
| 20260503043539 | 63 | 225 | 0.9 | 3.5 | 0.00 | 0.18 | 0.04 | 79 | 1026.9 |
| 20260503042519 | 63 | 113 | 0.9 | 2.6 | 0.00 | 0.18 | 0.04 | 79 | 1027.1 |
| 20260503041519 | 63 | 90 | 0.9 | 4.3 | 0.00 | 0.18 | 0.04 | 79 | 1027.1 |
| 20260503040519 | 62 | 113 | 1.7 | 6.1 | 0.00 | 0.18 | 0.04 | 80 | 1027.2 |
| 20260503035539 | 63 | 113 | 0.9 | 4.3 | 0.00 | 0.18 | 0.04 | 81 | 1027.2 |
| 20260503034519 | 62 | 135 | 0.9 | 4.3 | 0.00 | 0.19 | 0.04 | 84 | 1027.3 |
| 20260503033519 | 62 | 90 | 0.9 | 4.3 | 0.00 | 0.20 | 0.04 | 87 | 1027.4 |
| 20260503032539 | 61 | 113 | 1.7 | 4.3 | 0.00 | 0.21 | 0.04 | 86 | 1027.4 |
| 20260503031518 | 62 | 113 | 1.7 | 4.3 | 0.00 | 0.21 | 0.04 | 85 | 1027.4 |
| 20260503030519 | 61 | 113 | 0.9 | 4.3 | 0.00 | 0.21 | 0.04 | 88 | 1027.3 |
| 20260503025518 | 61 | 113 | 0.9 | 2.6 | 0.00 | 0.23 | 0.04 | 89 | 1027.5 |
| 20260503024519 | 60 | 113 | 0.9 | 2.6 | 0.00 | 0.23 | 0.04 | 91 | 1027.5 |
| 20260503023518 | 60 | 135 | 0.9 | 1.7 | 0.00 | 0.23 | 0.04 | 92 | 1027.6 |
| 20260503022518 | 59 | 135 | 1.7 | 6.1 | 0.00 | 0.23 | 0.04 | 96 | 1027.6 |
| 20260503021518 | 58 | 113 | 0.9 | 2.6 | 0.00 | 0.23 | 0.04 | 95 | 1027.6 |
| 20260503020518 | 58 | 113 | 1.7 | 7.0 | 0.00 | 0.24 | 0.04 | 95 | 1027.6 |
| 20260503015519 | 58 | 180 | 0.9 | 2.6 | 0.00 | 0.24 | 0.04 | 96 | 1027.5 |
| 20260503014518 | 57 | 0.0 | 1.7 | 0.00 | 0.24 | 0.04 | 95 | 1027.5 | |
| 20260503013518 | 57 | 113 | 0.9 | 4.3 | 0.00 | 0.24 | 0.04 | 96 | 1027.6 |
| 20260503012518 | 58 | 0.0 | 2.6 | 0.00 | 0.24 | 0.04 | 96 | 1027.6 | |
| 20260503011519 | 57 | 0.0 | 1.7 | 0.00 | 0.24 | 0.04 | 96 | 1027.5 | |
| 20260503010538 | 58 | 90 | 0.9 | 2.6 | 0.00 | 0.25 | 0.04 | 96 | 1027.5 |
| 20260503005518 | 58 | 0.0 | 1.7 | 0.00 | 0.26 | 0.04 | 96 | 1027.3 | |
| 20260503004518 | 57 | 0.0 | 3.5 | 0.00 | 0.26 | 0.04 | 96 | 1027.2 | |
| 20260503003519 | 57 | 0.0 | 0.9 | 0.00 | 0.26 | 0.04 | 97 | 1027.0 | |
| 20260503002518 | 57 | 0.0 | 0.9 | 0.01 | 0.30 | 0.04 | 96 | 1026.9 | |
| 20260503001538 | 57 | 0.0 | 0.9 | 0.02 | 0.30 | 0.04 | 96 | 1026.9 | |
| 20260503000518 | 56 | 0.0 | 0.9 | 0.02 | 0.30 | 0.04 | 96 | 1026.9 | |
| 20260502235518 | 56 | 0.0 | 0.9 | 0.02 | 0.30 | 0.04 | 96 | 1026.8 | |
| 20260502234518 | 56 | 113 | 0.9 | 5.2 | 0.02 | 0.30 | 0.04 | 96 | 1026.8 |
| 20260502233539 | 56 | 0.0 | 0.9 | 0.02 | 0.30 | 0.04 | 96 | 1026.5 | |
| 20260502232518 | 56 | 0.0 | 0.0 | 0.01 | 0.29 | 0.03 | 96 | 1026.6 | |
| 20260502231520 | 56 | 0.0 | 1.7 | 0.00 | 0.28 | 0.02 | 96 | 1026.4 | |
| 20260502230538 | 56 | 0.0 | 0.9 | 0.00 | 0.28 | 0.02 | 96 | 1026.5 | |
| 20260502225518 | 56 | 0.0 | 0.9 | 0.00 | 0.28 | 0.02 | 96 | 1026.4 | |
| 20260502224518 | 56 | 0.0 | 0.9 | 0.00 | 0.28 | 0.02 | 96 | 1026.1 | |
| 20260502223518 | 55 | 0.0 | 0.9 | 0.00 | 0.28 | 0.02 | 96 | 1026.1 | |
| 20260502222518 | 55 | 0.0 | 0.9 | 0.00 | 0.28 | 0.02 | 96 | 1025.9 | |
| 20260502221518 | 55 | 0.0 | 1.7 | 0.00 | 0.28 | 0.02 | 96 | 1025.9 | |
| 20260502220518 | 55 | 0.0 | 0.9 | 0.00 | 0.28 | 0.02 | 96 | 1025.8 | |
| 20260502215518 | 55 | 0.0 | 0.9 | 0.00 | 0.28 | 0.02 | 96 | 1025.7 | |
| 20260502214518 | 55 | 0.0 | 0.9 | 0.00 | 0.28 | 0.02 | 96 | 1025.7 | |
| 20260502213519 | 55 | 0.0 | 1.7 | 0.00 | 0.28 | 0.02 | 96 | 1025.6 | |
| 20260502212518 | 55 | 0.0 | 0.9 | 0.00 | 0.28 | 0.02 | 96 | 1025.5 | |
| 20260502211518 | 55 | 158 | 0.9 | 2.6 | 0.00 | 0.28 | 0.02 | 96 | 1025.5 |
| 20260502210518 | 55 | 0.0 | 4.3 | 0.00 | 0.28 | 0.02 | 96 | 1025.6 | |
| 20260502205518 | 55 | 0.0 | 2.6 | 0.00 | 0.30 | 0.02 | 96 | 1025.3 | |
| 20260502204538 | 55 | 135 | 0.9 | 3.5 | 0.00 | 0.30 | 0.02 | 96 | 1025.4 |
| 20260502203518 | 55 | 90 | 0.9 | 2.6 | 0.00 | 0.30 | 0.02 | 96 | 1025.4 |
| 20260502202518 | 55 | 0.0 | 0.9 | 0.00 | 0.30 | 0.02 | 96 | 1025.2 | |
| 20260502201518 | 55 | 0.0 | 2.6 | 0.01 | 0.30 | 0.02 | 96 | 1025.1 | |
| 20260502200518 | 55 | 203 | 0.9 | 3.5 | 0.01 | 0.30 | 0.02 | 96 | 1025.0 |
| 20260502195518 | 55 | 0.0 | 0.9 | 0.01 | 0.30 | 0.02 | 96 | 1025.2 | |
| 20260502194517 | 55 | 0.0 | 1.7 | 0.01 | 0.30 | 0.02 | 96 | 1025.0 | |
| 20260502193518 | 55 | 0.0 | 1.7 | 0.01 | 0.30 | 0.02 | 96 | 1024.9 |